Wind_Speed
18 19 19 19 19 19 19 20 20 21 21 22 22 23 23 23 24 24 25 26 27 27 27 28 28 29 30 31 31 32 32 32 32 32 33 33 33 33
20 21 21 21 21 21 21 22 23 23 24 24 25 26 26 27 28 28 29 30 30 31 32 33 33 34 34 35 36 36 36 36 37 37 37 38 38 38
23 23 23 22 22 23 24 24 25 25 26 28 29 29 29 30 31 32 32 33 34 34 35 36 37 37 38 39 39 40 40 40 40 41 41 42 42 42
24 24 25 25 25 25 26 26 27 28 29 30 31 31 31 32 33 34 35 36 37 38 38 39 40 41 42 43 43 43 44 44 45 45 46 46 46 46
24 25 25 25 26 26 27 28 29 30 31 32 32 32 33 34 35 36 37 38 39 40 41 43 44 45 46 47 47 48 48 49 50 50 51 51 51 51
23 24 25 26 27 28 29 30 30 31 32 33 33 34 35 36 37 38 39 41 43 44 45 47 47 48 49 50 51 51 52 53 54 54 55 56 56 56
25 25 26 28 29 30 30 31 32 33 34 35 36 37 38 39 40 41 42 44 45 47 48 50 51 51 52 53 54 55 56 56 57 58 59 59 60 60
26 27 28 29 30 31 32 33 34 36 37 38 40 41 41 42 43 45 47 48 49 50 51 53 54 56 57 58 59 60 61 62 62 63 63 64 64 64
27 28 29 30 31 32 33 35 36 38 40 42 43 44 45 46 48 49 50 52 53 54 55 56 58 59 61 62 64 65 66 66 67 67 67 67 67 67
28 29 30 31 32 34 35 37 39 41 42 44 46 48 49 51 52 53 54 56 58 59 60 60 61 62 64 65 67 68 69 70 70 71 71 71 70 70
29 31 32 34 36 38 39 41 43 45 46 48 49 50 52 53 55 57 58 60 61 62 63 64 65 65 66 67 68 70 71 72 72 73 72 72 71 71
33 35 36 38 39 40 42 44 46 48 50 50 52 53 55 57 59 60 62 63 64 65 65 67 67 68 68 68 69 71 72 72 72 72 72 71 71 70
35 37 38 39 41 43 45 47 48 50 52 53 55 57 59 61 62 64 65 66 66 67 68 69 69 69 70 70 69 70 70 69 69 69 68 68 67 66
37 38 40 41 43 45 46 48 49 51 53 55 57 59 61 63 64 65 66 67 68 69 69 69 69 68 68 67 66 65 65 64 63 63 62 62 62 62
38 39 41 42 44 45 47 49 51 53 55 57 59 61 62 64 64 65 66 67 67 67 67 66 65 64 64 63 62 60 58 57 56 55 54 54 54 54
41 41 42 43 45 47 49 51 53 55 57 58 59 60 61 62 62 63 63 62 62 61 61 60 60 59 58 57 56 54 52 50 48 47 46 46 46 46
41 42 43 45 47 49 51 52 54 55 55 56 57 57 58 58 58 58 57 56 55 54 53 52 52 52 51 49 47 45 43 42 41 40 39 38 39 40
42 43 44 46 47 48 50 51 52 52 53 53 53 53 53 53 52 52 51 49 48 47 46 46 45 43 42 41 40 38 36 35 34 33 33 32 33 34
41 42 44 45 46 47 47 48 48 48 47 47 48 48 48 48 47 46 45 44 43 42 41 40 39 37 35 34 34 34 32 31 29 29 28 28 28 28
41 42 42 43 43 43 43 43 43 43 43 44 44 44 43 42 41 40 40 39 37 36 36 35 34 32 31 29 29 30 30 28 26 26 25 25 24 24
39 40 40 40 40 40 40 40 41 41 40 40 40 40 39 38 38 36 35 34 33 32 32 31 30 29 28 28 27 26 27 26 25 24 22 21 21 21
37 37 37 37 37 38 38 38 38 37 37 37 37 37 36 35 34 33 31 30 30 29 29 28 28 28 28 27 26 24 24 24 24 23 21 20 19 19
35 36 36 36 35 36 36 35 35 34 35 35 35 34 33 32 31 30 29 29 29 28 27 28 28 28 27 26 24 23 22 22 22 22 22 21 20 19
Wind_Direction
253 256 257 258 260 263 265 267 268 269 271 272 273 274 275 274 274 274 275 275 276 276 276 276 276 276 276 276 276 275 275 275 274 273 272 272 272 272
256 258 260 260 261 262 265 267 268 270 272 274 275 276 276 276 276 276 277 277 277 277 277 277 277 277 277 277 277 276 275 274 273 273 273 272 272 271
260 261 262 261 262 264 266 267 269 270 272 274 275 276 276 276 277 277 277 278 278 278 277 277 276 277 277 277 276 276 275 274 274 273 273 273 272 272
263 263 264 262 265 268 268 269 271 273 274 276 276 275 276 276 277 277 277 277 278 278 278 277 277 277 276 275 275 275 275 275 274 273 273 272 272 271
264 264 264 265 267 270 271 271 273 275 276 276 276 276 277 278 277 277 277 277 278 278 277 277 277 277 276 276 276 275 275 274 274 274 273 273 272 271
267 267 268 271 272 273 273 273 275 277 277 276 277 277 278 278 278 278 278 278 278 278 277 277 277 277 277 277 276 276 275 274 275 274 274 273 272 271
269 270 273 275 275 275 276 277 278 279 278 277 278 278 278 278 278 278 279 280 280 279 279 278 278 278 278 278 277 277 276 275 275 274 274 273 272 271
271 273 275 276 276 276 277 278 279 279 279 279 280 280 279 279 280 280 280 280 280 280 280 280 281 280 280 279 279 278 277 276 276 276 275 274 273 272
272 275 277 277 277 278 279 280 280 281 280 281 281 281 281 281 281 281 281 281 281 280 280 281 281 281 281 280 280 279 279 278 278 277 276 275 274 273
277 277 278 280 281 281 281 282 282 283 283 283 283 283 283 283 283 283 283 283 283 283 282 282 282 282 282 282 281 281 280 280 279 278 277 276 275 274
278 279 280 282 282 283 283 283 284 284 284 284 284 284 284 284 284 284 284 284 284 284 284 284 283 283 283 282 282 282 281 280 279 279 278 277 276 275
281 281 282 283 283 284 285 285 286 286 286 286 286 286 285 286 286 286 286 286 285 285 285 285 284 284 283 283 283 283 282 282 281 280 279 277 276 275
283 284 284 284 284 285 286 286 287 287 287 288 288 288 288 288 288 288 288 288 287 287 287 286 286 285 285 285 284 284 283 282 281 280 279 278 277 275
285 286 286 287 287 288 288 288 289 289 289 290 290 290 290 291 291 291 290 290 290 289 289 288 288 288 287 287 286 285 284 283 282 281 280 278 277 276
287 287 288 288 289 290 290 291 291 292 292 292 292 293 293 292 292 292 292 292 292 292 291 291 291 291 291 290 288 287 285 284 283 282 280 278 277 276
287 288 290 291 292 292 293 294 294 295 296 296 296 296 296 296 295 295 294 294 295 295 295 295 295 295 294 293 292 291 289 287 284 282 280 279 277 275
289 291 292 294 295 296 297 298 299 299 299 299 299 299 299 299 299 298 298 297 297 297 297 297 298 298 297 296 295 294 292 290 288 285 282 280 279 278
293 295 296 298 299 300 301 302 302 302 302 302 302 303 303 303 303 302 302 302 301 301 300 300 301 301 301 300 298 297 296 294 292 289 286 282 281 281
299 300 301 303 304 304 305 306 306 306 307 307 307 307 307 307 306 306 306 306 305 305 305 305 304 303 302 301 300 300 299 297 296 293 290 288 285 283
303 303 304 306 307 308 309 311 311 311 312 313 313 313 312 311 311 310 310 310 310 310 310 309 309 308 307 305 302 301 300 300 298 296 293 292 289 287
305 306 308 309 310 312 313 314 315 315 316 316 317 318 317 317 316 315 315 315 315 315 315 315 314 314 312 310 308 306 303 302 300 298 294 291 290 289
308 310 311 313 314 315 316 316 317 319 320 321 321 322 322 322 322 321 321 321 320 320 319 319 318 317 317 315 313 310 307 304 303 301 297 294 292 289
310 311 313 314 315 317 319 320 321 322 324 326 326 325 326 327 327 327 326 326 325 324 322 321 321 320 319 319 318 316 312 308 305 304 302 299 297 296
Height
5874 5874 5875 5875 5875 5875 5875 5875 5875 5875 5874 5873 5873 5872 5871 5871 5870 5869 5868 5867 5866 5865 5864 5863 5862 5861 5860 5859 5858 5857 5856 5855 5854 5853 5853 5852 5851 5851
5869 5870 5870 5870 5870 5870 5870 5870 5870 5870 5869 5868 5867 5866 5866 5865 5864 5863 5861 5860 5859 5858 5857 5856 5854 5853 5852 5851 5849 5848 5847 5846 5845 5844 5843 5843 5842 5841
5864 5864 5865 5865 5865 5865 5865 5864 5864 5863 5863 5862 5861 5860 5859 5858 5856 5855 5854 5852 5851 5850 5848 5847 5845 5844 5842 5841 5840 5838 5837 5836 5835 5834 5833 5832 5831 5831
5858 5858 5859 5859 5859 5859 5858 5858 5857 5857 5856 5855 5853 5852 5851 5850 5848 5847 5845 5843 5842 5840 5838 5837 5835 5833 5831 5830 5828 5827 5826 5824 5823 5822 5821 5820 5819 5818
5852 5852 5852 5852 5852 5852 5851 5851 5850 5849 5848 5847 5845 5844 5843 5841 5839 5838 5836 5833 5831 5830 5828 5826 5824 5822 5820 5818 5816 5815 5813 5812 5810 5809 5807 5806 5805 5804
5845 5845 5845 5845 5844 5844 5843 5842 5841 5841 5839 5838 5836 5835 5833 5831 5830 5828 5825 5823 5820 5818 5816 5814 5811 5809 5807 5805 5803 5801 5799 5797 5796 5794 5793 5791 5790 5789
5839 5838 5838 5837 5837 5836 5835 5834 5833 5831 5830 5828 5826 5825 5823 5821 5819 5816 5814 5811 5808 5805 5803 5800 5797 5795 5793 5790 5788 5785 5783 5781 5780 5778 5776 5774 5773 5772
5832 5832 5831 5830 5829 5828 5827 5825 5824 5822 5820 5818 5816 5814 5812 5809 5807 5804 5802 5799 5796 5793 5790 5786 5783 5780 5777 5774 5771 5768 5766 5763 5761 5760 5758 5756 5755 5753
5826 5825 5824 5822 5821 5819 5818 5816 5814 5812 5810 5808 5805 5802 5800 5797 5794 5791 5787 5784 5781 5778 5775 5772 5768 5764 5759 5755 5752 5749 5746 5743 5741 5739 5737 5736 5734 5733
5819 5817 5816 5814 5813 5811 5809 5806 5804 5802 5799 5796 5793 5790 5787 5783 5780 5777 5773 5769 5765 5762 5758 5755 5751 5747 5742 5737 5732 5728 5725 5722 5719 5717 5715 5713 5712 5711
5811 5809 5807 5805 5803 5801 5799 5796 5793 5790 5787 5783 5780 5776 5772 5769 5765 5761 5757 5753 5749 5744 5740 5736 5732 5728 5724 5718 5712 5707 5703 5700 5697 5694 5692 5690 5688 5687
5802 5800 5798 5796 5793 5790 5787 5784 5781 5778 5774 5770 5766 5762 5758 5753 5749 5744 5740 5735 5730 5726 5721 5717 5712 5707 5704 5699 5691 5685 5680 5676 5673 5670 5668 5666 5664 5664
5793 5790 5788 5785 5783 5779 5776 5773 5769 5765 5760 5756 5751 5746 5741 5736 5731 5726 5720 5715 5710 5705 5700 5696 5690 5685 5680 5677 5672 5664 5658 5654 5651 5648 5645 5643 5641 5640
5783 5780 5778 5775 5772 5768 5764 5760 5756 5751 5746 5741 5736 5730 5725 5719 5713 5707 5701 5695 5689 5683 5678 5673 5668 5663 5658 5654 5650 5644 5637 5632 5629 5627 5624 5622 5620 5619
5773 5770 5767 5763 5760 5756 5751 5747 5742 5737 5731 5726 5719 5713 5707 5701 5694 5688 5681 5674 5668 5662 5657 5652 5647 5641 5636 5631 5627 5623 5619 5614 5609 5607 5605 5603 5601 5600
5762 5759 5755 5752 5748 5743 5738 5733 5727 5722 5715 5709 5702 5695 5689 5682 5676 5669 5663 5656 5650 5643 5636 5632 5627 5622 5617 5611 5607 5603 5599 5597 5593 5590 5589 5587 5584 5583
5752 5748 5744 5740 5735 5730 5724 5718 5712 5706 5699 5693 5686 5679 5672 5665 5658 5652 5645 5639 5633 5627 5622 5616 5610 5605 5600 5596 5591 5587 5584 5581 5578 5576 5575 5573 5571 5569
5741 5736 5732 5727 5722 5716 5710 5704 5698 5691 5684 5677 5671 5664 5657 5650 5643 5636 5630 5624 5618 5613 5608 5603 5598 5594 5588 5583 5578 5575 5572 5569 5566 5564 5562 5561 5560 5558
5730 5725 5720 5715 5709 5704 5698 5691 5684 5678 5671 5664 5657 5650 5643 5636 5630 5623 5617 5612 5606 5601 5596 5591 5586 5583 5579 5575 5569 5564 5562 5559 5557 5555 5553 5551 5550 5548
5719 5714 5709 5704 5698 5692 5686 5679 5673 5666 5660 5653 5646 5639 5632 5625 5619 5613 5607 5602 5597 5592 5586 5581 5577 5573 5569 5566 5562 5558 5553 5550 5549 5547 5545 5543 5542 5540
5709 5704 5699 5693 5688 5682 5676 5670 5663 5657 5651 5644 5637 5630 5623 5617 5610 5605 5599 5594 5589 5584 5579 5574 5569 5565 5561 5557 5554 5551 5547 5543 5541 5539 5538 5536 5535 5534
5699 5694 5689 5684 5678 5673 5667 5661 5655 5649 5642 5636 5629 5622 5616 5609 5603 5598 5592 5587 5582 5577 5572 5568 5563 5559 5555 5551 5547 5544 5541 5538 5534 5532 5530 5529 5528 5527
5689 5685 5680 5675 5670 5664 5659 5653 5647 5641 5635 5629 5622 5616 5609 5603 5597 5592 5587 5582 5577 5572 5567 5563 5558 5553 5549 5545 5541 5538 5535 5532 5529 5527 5524 5522 5521 5520